Location: Lombray
(49.5154°N, 3.1089°E)
Time: 13:48:50
(UTC+00:00)

Cosmos 1271 Rocket - Pass Details

Date: 15 May 2026
Orbit: 421 x 447 km, 81.2° (Epoch: 11 June)

Event Time Altitude Azimuth Distance (km) Brightness Sun altitude
Exits shadow 23:40:54 21° 275° (W) 1,059 4.3 -21.4°
Maximum altitude 23:41:31 22° 291° (WNW) 1,024 4.4 -21.4°
Drops below altitude 10° 23:44:13 10° 344° (NNW) 1,554 6.2 -21.4°
Sets 23:46:36 0° 1° (N) 2,422 7.7 -21.4°
